Location: Newark
(51.7378°N, 19.8125°E)
Time: 19:48:07
(UTC+00:00)

Envisat - Pass Details

Date: 10 December 2019
Orbit: 764 x 766 km, 98.1° (Epoch: 28 January)

Event Time Altitude Azimuth Distance (km) Brightness Sun altitude
Rises 17:37:27 0° 202° (SSW) 3,223 6.5 -27.6°
Reaches altitude 10° 17:40:11 10° 216° (SW) 2,302 5.9 -28.0°
Maximum altitude 17:44:14 24° 269° (W) 1,561 5.3 -28.6°
Drops below altitude 10° 17:48:20 10° 322° (NW) 2,316 5.9 -29.3°
Sets 17:51:05 0° 337° (NNW) 3,248 6.5 -29.7°
